Weather History for Esquel, Argentina

Change the Weather History Date:

Sunday, April 28, 2013

  Actual Average Record
Temperature  
Mean Temperature 47 °F -  
Max Temperature 60 °F 52 °F - ()
Min Temperature 34 °F 32 °F - ()
Degree Days  
Heating Degree Days 18    
Moisture  
Dew Point 40 °F    
Average Humidity 75    
Maximum Humidity 100    
Minimum Humidity 47    
Precipitation  
Precipitation 0.00 in 0.10 in - ()
Sea Level Pressure  
Sea Level Pressure 29.94 in    
Wind  
Wind Speed 5 mph ()    
Max Wind Speed 17 mph    
Max Gust Speed -    
Visibility 8.9 miles    
Events      
T = Trace of Precipitation, MM = Missing Value Source: Averaged Metar Reports

Daily Weather History Graph

Daily Weather History Graph

Search for Another Location

Airport:

Trip Planner

Search our weather history database for the weather conditions in past years. The results will help you decide how hot, cold, wet, or windy it might be!

Date:

Astronomy

Apr. 28, 2013 Rise Set
Actual Time 8:32 AM ART 6:51 PM ART
Civil Twilight 8:02 AM ART 7:20 PM ART
Nautical Twilight 7:29 AM ART 7:54 PM ART
Astronomical Twilight 6:56 AM ART 8:27 PM ART
Moon 9:25 PM ART (4/28) 11:39 AM ART (4/28)
Length of Visible Light 11h 18m
Length of Day
10h 19m
Waning Gibbous, 89% of the Moon is Illuminated
Apr 28
Waning Gibbous
May 2
Last Quarter
May 9
New
May 18
First Quarter
May 25
Full

Hourly Weather History & Observations

Time (ART) Temp. Windchill Dew Point Humidity Pressure Visibility Wind Dir Wind Speed Gust Speed Precip Events Conditions
12:00 AM 46.4 °F 42.4 °F 41.0 °F 81% 30.04 in - WSW 8.1 mph - N/A   Clear
1:00 AM 46.4 °F 42.4 °F 41.0 °F 81% 30.01 in - West 8.1 mph - N/A   Clear
2:00 AM 44.6 °F 38.4 °F 41.0 °F 87% 30.01 in - WSW 12.7 mph - N/A   Clear
3:00 AM 44 °F - 41 °F 86% 30.00 in 19 mi WSW 5.8 mph - -   Scattered Clouds
4:00 AM 42.8 °F - 39.2 °F 87% 30.01 in - NNW 1.2 mph - N/A   Clear
5:00 AM 39.2 °F - 37.4 °F 93% 29.98 in - ENE 1.2 mph - N/A   Clear
6:00 AM 39.2 °F - 37.4 °F 93% 29.98 in - North 1.2 mph - N/A   Clear
7:00 AM 37.4 °F 34.9 °F 37.4 °F 100% 29.98 in - NE 3.5 mph - N/A   Clear
8:00 AM 37.4 °F 34.9 °F 37.4 °F 100% 29.98 in - NNE 3.5 mph - N/A   Clear
9:00 AM 38 °F - 37 °F 96% 30.00 in 19 mi NE 2.3 mph - -   Scattered Clouds
9:00 AM 37.4 °F - 37.4 °F 100% 29.98 in 6.2 mi NE 2.3 mph - N/A   Mostly Cloudy
10:00 AM 39.2 °F 35.0 °F 37.4 °F 93% 29.98 in 6.2 mi NE 5.8 mph - N/A   Mostly Cloudy
11:00 AM 41.0 °F 38.0 °F 37.4 °F 87% 29.98 in 6.2 mi NE 4.6 mph - N/A   Mostly Cloudy
12:00 PM 46.4 °F 43.5 °F 41.0 °F 81% 29.95 in 6.2 mi NE 5.8 mph - N/A   Mostly Cloudy
1:00 PM 50.0 °F - 41.0 °F 71% 29.92 in 6.2 mi Variable 1.2 mph - N/A   Mostly Cloudy
2:00 PM 55.4 °F - 42.8 °F 63% 29.89 in 6.2 mi NE 2.3 mph - N/A   Mostly Cloudy
3:00 PM 59 °F - 44 °F 47% 29.86 in 19 mi WNW 10.4 mph - -   Scattered Clouds
3:00 PM 59.0 °F - 44.6 °F 59% 29.86 in 6.2 mi WNW 10.4 mph - N/A   Mostly Cloudy
4:00 PM 59.0 °F - 42.8 °F 55% 29.86 in 6.2 mi West 10.4 mph - N/A   Unknown
5:00 PM 59.0 °F - 42.8 °F 55% 29.86 in 6.2 mi West 9.2 mph - N/A   Scattered Clouds
6:00 PM 55.4 °F - 37.4 °F 51% 29.86 in 6.2 mi WSW 17.3 mph - N/A   Partly Cloudy
7:00 PM 55.4 °F - 39.2 °F 54% 29.86 in 6.2 mi West 13.8 mph - N/A   Partly Cloudy
8:00 PM 53.6 °F - 39.2 °F 58% 29.86 in 6.2 mi West 5.8 mph - N/A   Partly Cloudy
9:00 PM 53 °F - 39 °F 49% 29.90 in 19 mi WNW 5.8 mph - -   Scattered Clouds
9:00 PM 53.6 °F - 39.2 °F 58% 29.86 in 6.2 mi WNW 4.6 mph - N/A   Partly Cloudy
10:00 PM 51.8 °F - 39.2 °F 62% 29.89 in 6.2 mi Calm Calm - N/A   Partly Cloudy
11:00 PM 50.0 °F - 39.2 °F 66% 29.89 in 6.2 mi SW 2.3 mph - N/A   Mostly Cloudy